Муминабад

Таджикистан     38°06′32″N   70°01′38″E
темп.,
°C
ветер,
м/с
пор.,
м/с
влажн.,
%
обл.,
%
осадки,
мм/ч
давл.,
гПа
погр.,
м
21 апреля, ср
ср2123:00+9вюв447287 1.9 101765
02:00+8вюв4476100 1.1 101758
05:00+9вюв4479100 2.3 101786
08:00+10вюв467999 1.6 1018262
11:00+12ююв5116781 2.3 10191481
14:00+10юв4681100 2.9 1018238
17:00+12юв587286 5.7 1016547
20:00+9юв457699 3.0 101784
22 апреля, чт
чт2223:00+9вюв447799 4.6 101774
02:00+7вюв44772 0.3 101849
05:00+6вюв43726 0.3 101941
08:00+11юв36560 0.0 1020958
11:00+13ююз57351 0.0 10212040
14:00+14ююз56300 0.0 10211845
17:00+13зюз22331 0.0 10211210
20:00+8всв22470 0.0 102211
23 апреля, пт
пт2323:00+7в33540 0.0 102325
02:00+5в43500 0.0 102336
05:00+4в43490 0.0 102442
08:00+9в33450 0.0 1023214
11:00+14з11340 0.0 10221590
14:00+16зсз33330 0.0 10201868
17:00+15зсз224097 0.0 1019769
20:00+10в32490 0.0 102013
24 апреля, сб
сб2423:00+8в43450 0.0 102138
02:00+6в54390 0.0 102144
05:00+6в54361 0.0 102143
08:00+11в33394 0.0 1020167
11:00+17зсз112595 0.0 1019984
14:00+19зсз322896 0.0 10171320
17:00+18зсз213875 0.0 1018573
20:00+13в2246100 0.0 102014
25 апреля, вс
вс2523:00+12в3245100 0.0 102020
02:00+10в433772 0.0 102030
05:00+9в433376 0.0 102032
08:00+14в333950 0.0 1019137
11:00+20зсз1126100 0.0 1018827
14:00+21зсз2232100 0.0 10161052
17:00+19зсз1149100 0.0 1016184
20:00+15в2253100 0.0 101711